sat.trackr.live / text

‹ back to catalog

STARLINK-31522

NORAD 59204 · 2024-046D

PAYLOAD ACTIVE UNKNOWN

§ Identity

Operator
Country
US
Launch date
2024-03-11
Launch site
AFWTR
Launch vehicle
Mass (kg)
RCS (m²)

Purposes: comms

External: N2YO · Heavens-Above · Gunter

§ Orbital elements

Epoch: 2026-05-24T18:23:40.432416Z

Period
94.11 min
Inclination
53.1589°
Eccentricity
0.0001111
Mean motion
15.30189763 rev/d
Perigee alt
474.5 km
Apogee alt
476.0 km
Semi-major
6,853.4 km
B*
2.0694e-5
RAAN
162.2264°
Arg perigee
93.9845°
Mean anomaly
266.1283°
Rev number
12,469

§ Raw data

STARLINK-315221 59204U 24046D   26144.76644019  .00000254  00000+0  20694-4 0  99952 59204  53.1589 162.2264 0001111  93.9845 266.1283 15.30189763124691

JSON: /api/v1/satellites/59204 · /tle

For live sub-satellite position, see the globe view (requires WebGL).

§ Visibility from observer

Set your observer location to see the next 7 days of passes ≥ 10°. The values pass through the URL so the page stays shareable.

No JS? Fill the form by hand. The geolocation button needs JavaScript.